PRIVATE WETTERSTATION BILLIGHEIM-ALLFELD                       ZURCK
Wetterdaten: Montag, 17.04.2017
Datum Zeit Temp. A. Temp. A. min Temp. A. max Feuchte A. Luftdruck Regen Wind Richtung Richtung Sonnenschein ET Solar Taupunkt Windchill Windben Empfang
17.04.2017 00:00 5,1 C 5,1 C 5,1 C 89 % 1019,7 hPa 0,0 l/m 0,0 km/h (0 Bft) N 0 0 min 0,000 mm 0 W/m 3,4 C 5,1 C 0,0 km/h (0 Bft) 100 %
17.04.2017 00:10 5,0 C 5,0 C 5,1 C 88 % 1019,7 hPa 0,0 l/m 0,0 km/h (0 Bft) SW 225 0 min 0,000 mm 0 W/m 3,2 C 5,0 C 1,6 km/h (1 Bft) 100 %
17.04.2017 00:20 4,9 C 4,9 C 5,0 C 88 % 1019,7 hPa 0,0 l/m 0,0 km/h (0 Bft) N 0 0 min 0,000 mm 0 W/m 3,1 C 4,9 C 0,0 km/h (0 Bft) 100 %
17.04.2017 00:30 4,9 C 4,9 C 4,9 C 88 % 1019,7 hPa 0,0 l/m 0,0 km/h (0 Bft) N 0 0 min 0,000 mm 0 W/m 3,1 C 4,9 C 0,0 km/h (0 Bft) 100 %
17.04.2017 00:40 4,9 C 4,9 C 4,9 C 88 % 1019,6 hPa 0,0 l/m 0,0 km/h (0 Bft) SW 225 0 min 0,000 mm 0 W/m 3,1 C 4,9 C 1,6 km/h (1 Bft) 100 %
17.04.2017 00:50 4,9 C 4,9 C 4,9 C 87 % 1019,6 hPa 0,0 l/m 0,0 km/h (0 Bft) N 0 0 min 0,000 mm 0 W/m 2,9 C 4,9 C 0,0 km/h (0 Bft) 100 %
17.04.2017 01:00 4,9 C 4,9 C 5,0 C 86 % 1019,5 hPa 0,0 l/m 0,0 km/h (0 Bft) N 0 0 min 0,000 mm 0 W/m 2,8 C 4,9 C 0,0 km/h (0 Bft) 100 %
17.04.2017 01:10 4,9 C 4,9 C 4,9 C 86 % 1019,5 hPa 0,0 l/m 0,0 km/h (0 Bft) N 0 0 min 0,000 mm 0 W/m 2,8 C 4,9 C 0,0 km/h (0 Bft) 100 %
17.04.2017 01:20 4,8 C 4,8 C 4,9 C 86 % 1019,4 hPa 0,0 l/m 1,6 km/h (1 Bft) W-SW 247 0 min 0,000 mm 0 W/m 2,7 C 4,8 C 8,0 km/h (2 Bft) 100 %
17.04.2017 01:30 4,8 C 4,8 C 4,8 C 85 % 1019,4 hPa 0,0 l/m 1,6 km/h (1 Bft) W-SW 247 0 min 0,000 mm 0 W/m 2,5 C 4,8 C 6,4 km/h (2 Bft) 91 %
17.04.2017 01:40 4,6 C 4,6 C 4,8 C 85 % 1019,4 hPa 0,0 l/m 1,6 km/h (1 Bft) W-SW 247 0 min 0,000 mm 0 W/m 2,3 C 4,6 C 6,4 km/h (2 Bft) 100 %
17.04.2017 01:50 4,3 C 4,3 C 4,6 C 86 % 1019,4 hPa 0,0 l/m 3,2 km/h (1 Bft) W-SW 247 0 min 0,000 mm 0 W/m 2,2 C 4,3 C 6,4 km/h (2 Bft) 100 %
17.04.2017 02:00 4,2 C 4,2 C 4,3 C 86 % 1019,3 hPa 0,0 l/m 1,6 km/h (1 Bft) W-SW 247 0 min 0,000 mm 0 W/m 2,1 C 4,2 C 4,8 km/h (1 Bft) 100 %
17.04.2017 02:10 4,1 C 4,1 C 4,2 C 86 % 1019,2 hPa 0,0 l/m 0,0 km/h (0 Bft) W-SW 247 0 min 0,000 mm 0 W/m 2,0 C 4,1 C 1,6 km/h (1 Bft) 100 %
17.04.2017 02:20 4,0 C 4,0 C 4,1 C 86 % 1019,2 hPa 0,0 l/m 1,6 km/h (1 Bft) W-SW 247 0 min 0,000 mm 0 W/m 1,9 C 4,0 C 4,8 km/h (1 Bft) 100 %
17.04.2017 02:30 4,0 C 3,9 C 4,0 C 86 % 1019,2 hPa 0,0 l/m 0,0 km/h (0 Bft) W-SW 247 0 min 0,000 mm 0 W/m 1,9 C 4,0 C 1,6 km/h (1 Bft) 100 %
17.04.2017 02:40 3,9 C 3,9 C 4,0 C 86 % 1019,1 hPa 0,0 l/m 0,0 km/h (0 Bft) N 0 0 min 0,000 mm 0 W/m 1,8 C 3,9 C 0,0 km/h (0 Bft) 100 %
17.04.2017 02:50 3,8 C 3,8 C 3,9 C 86 % 1019,0 hPa 0,0 l/m 1,6 km/h (1 Bft) SW 225 0 min 0,000 mm 0 W/m 1,7 C 3,8 C 8,0 km/h (2 Bft) 100 %
17.04.2017 03:00 3,7 C 3,7 C 3,8 C 87 % 1018,8 hPa 0,0 l/m 0,0 km/h (0 Bft) SW 225 0 min 0,000 mm 0 W/m 1,7 C 3,7 C 4,8 km/h (1 Bft) 100 %
17.04.2017 03:10 3,7 C 3,6 C 3,7 C 87 % 1018,8 hPa 0,0 l/m 0,0 km/h (0 Bft) SW 225 0 min 0,000 mm 0 W/m 1,7 C 3,7 C 4,8 km/h (1 Bft) 100 %
17.04.2017 03:20 3,6 C 3,6 C 3,7 C 87 % 1018,7 hPa 0,0 l/m 0,0 km/h (0 Bft) N 0 0 min 0,000 mm 0 W/m 1,6 C 3,6 C 0,0 km/h (0 Bft) 100 %
17.04.2017 03:30 3,6 C 3,6 C 3,6 C 88 % 1018,6 hPa 0,0 l/m 0,0 km/h (0 Bft) SW 225 0 min 0,000 mm 0 W/m 1,8 C 3,6 C 1,6 km/h (1 Bft) 100 %
17.04.2017 03:40 3,6 C 3,6 C 3,6 C 88 % 1018,5 hPa 0,0 l/m 0,0 km/h (0 Bft) N 0 0 min 0,000 mm 0 W/m 1,8 C 3,6 C 0,0 km/h (0 Bft) 100 %
17.04.2017 03:50 3,6 C 3,6 C 3,6 C 89 % 1018,4 hPa 0,0 l/m 1,6 km/h (1 Bft) SW 225 0 min 0,000 mm 0 W/m 2,0 C 3,6 C 4,8 km/h (1 Bft) 100 %
17.04.2017 04:00 3,7 C 3,6 C 3,7 C 89 % 1018,4 hPa 0,0 l/m 0,0 km/h (0 Bft) SW 225 0 min 0,000 mm 0 W/m 2,1 C 3,7 C 1,6 km/h (1 Bft) 100 %
17.04.2017 04:10 3,9 C 3,7 C 3,9 C 89 % 1018,4 hPa 0,0 l/m 0,0 km/h (0 Bft) SW 225 0 min 0,000 mm 0 W/m 2,3 C 3,9 C 6,4 km/h (2 Bft) 100 %
17.04.2017 04:20 4,2 C 3,9 C 4,2 C 90 % 1018,5 hPa 0,4 l/m 1,6 km/h (1 Bft) SW 225 0 min 0,000 mm 0 W/m 2,7 C 4,2 C 4,8 km/h (1 Bft) 100 %
17.04.2017 04:30 4,5 C 4,2 C 4,5 C 90 % 1018,2 hPa 0,0 l/m 1,6 km/h (1 Bft) W-SW 247 0 min 0,000 mm 0 W/m 3,0 C 4,5 C 16,1 km/h (3 Bft) 100 %
17.04.2017 04:40 4,6 C 4,5 C 4,6 C 89 % 1018,1 hPa 0,0 l/m 1,6 km/h (1 Bft) W-SW 247 0 min 0,000 mm 0 W/m 2,9 C 4,6 C 9,7 km/h (2 Bft) 100 %
17.04.2017 04:50 4,7 C 4,6 C 4,7 C 89 % 1017,9 hPa 0,0 l/m 0,0 km/h (0 Bft) W-SW 247 0 min 0,000 mm 0 W/m 3,0 C 4,7 C 4,8 km/h (1 Bft) 100 %
17.04.2017 05:00 4,7 C 4,6 C 4,7 C 89 % 1017,9 hPa 0,0 l/m 0,0 km/h (0 Bft) W 270 0 min 0,000 mm 0 W/m 3,0 C 4,7 C 4,8 km/h (1 Bft) 100 %
17.04.2017 05:10 4,7 C 4,7 C 4,7 C 89 % 1017,7 hPa 0,0 l/m 0,0 km/h (0 Bft) N 0 0 min 0,000 mm 0 W/m 3,0 C 4,7 C 0,0 km/h (0 Bft) 100 %
17.04.2017 05:20 4,6 C 4,6 C 4,7 C 89 % 1017,3 hPa 0,0 l/m 0,0 km/h (0 Bft) W 270 0 min 0,000 mm 0 W/m 2,9 C 4,6 C 1,6 km/h (1 Bft) 100 %
17.04.2017 05:30 4,4 C 4,4 C 4,6 C 90 % 1017,3 hPa 0,0 l/m 0,0 km/h (0 Bft) N 0 0 min 0,000 mm 0 W/m 2,9 C 4,4 C 0,0 km/h (0 Bft) 100 %
17.04.2017 05:40 4,4 C 4,4 C 4,4 C 90 % 1017,1 hPa 0,0 l/m 0,0 km/h (0 Bft) W-SW 247 0 min 0,000 mm 0 W/m 2,9 C 4,4 C 4,8 km/h (1 Bft) 100 %
17.04.2017 05:50 4,6 C 4,4 C 4,6 C 90 % 1017,0 hPa 0,0 l/m 3,2 km/h (1 Bft) W-SW 247 0 min 0,000 mm 0 W/m 3,1 C 4,6 C 6,4 km/h (2 Bft) 100 %
17.04.2017 06:00 4,6 C 4,6 C 4,7 C 90 % 1016,8 hPa 0,0 l/m 1,6 km/h (1 Bft) W-SW 247 0 min 0,000 mm 0 W/m 3,1 C 4,6 C 6,4 km/h (2 Bft) 100 %
17.04.2017 06:10 4,7 C 4,6 C 4,7 C 90 % 1016,7 hPa 0,0 l/m 0,0 km/h (0 Bft) S-SW 202 0 min 0,000 mm 0 W/m 3,2 C 4,7 C 1,6 km/h (1 Bft) 100 %
17.04.2017 06:20 4,8 C 4,7 C 4,8 C 90 % 1016,6 hPa 0,0 l/m 3,2 km/h (1 Bft) S-SO 157 0 min 0,000 mm 0 W/m 3,3 C 4,8 C 6,4 km/h (2 Bft) 100 %
17.04.2017 06:30 4,8 C 4,8 C 4,8 C 90 % 1016,4 hPa 0,0 l/m 4,8 km/h (1 Bft) S-SO 157 0 min 0,000 mm 0 W/m 3,3 C 4,8 C 8,0 km/h (2 Bft) 100 %
17.04.2017 06:40 4,8 C 4,8 C 4,8 C 90 % 1016,2 hPa 0,0 l/m 4,8 km/h (1 Bft) S-SO 157 0 min 0,000 mm 0 W/m 3,3 C 4,8 C 8,0 km/h (2 Bft) 100 %
17.04.2017 06:50 4,8 C 4,8 C 4,8 C 90 % 1016,3 hPa 0,0 l/m 3,2 km/h (1 Bft) S-SO 157 0 min 0,000 mm 5 W/m 3,3 C 4,8 C 6,4 km/h (2 Bft) 100 %
17.04.2017 07:00 4,8 C 4,8 C 4,9 C 90 % 1016,2 hPa 0,0 l/m 1,6 km/h (1 Bft) S-SO 157 0 min 0,000 mm 12 W/m 3,3 C 4,8 C 8,0 km/h (2 Bft) 100 %
17.04.2017 07:10 4,9 C 4,8 C 4,9 C 90 % 1016,1 hPa 0,0 l/m 1,6 km/h (1 Bft) S-SO 157 0 min 0,000 mm 16 W/m 3,4 C 4,9 C 6,4 km/h (2 Bft) 100 %
17.04.2017 07:20 4,9 C 4,8 C 4,9 C 90 % 1016,2 hPa 0,0 l/m 0,0 km/h (0 Bft) S-SO 157 0 min 0,000 mm 14 W/m 3,4 C 4,9 C 3,2 km/h (1 Bft) 100 %
17.04.2017 07:30 4,9 C 4,9 C 4,9 C 90 % 1016,2 hPa 0,2 l/m 0,0 km/h (0 Bft) S 180 0 min 0,000 mm 23 W/m 3,4 C 4,9 C 1,6 km/h (1 Bft) 100 %
17.04.2017 07:40 5,0 C 4,9 C 5,0 C 90 % 1016,2 hPa 0,2 l/m 1,6 km/h (1 Bft) S 180 0 min 0,000 mm 26 W/m 3,5 C 5,0 C 8,0 km/h (2 Bft) 100 %
17.04.2017 07:50 5,1 C 5,0 C 5,1 C 96 % 1015,9 hPa 0,2 l/m 3,2 km/h (1 Bft) S 180 0 min 0,000 mm 40 W/m 4,5 C 5,1 C 9,7 km/h (2 Bft) 100 %
17.04.2017 08:00 5,1 C 5,1 C 5,1 C 91 % 1015,8 hPa 0,2 l/m 1,6 km/h (1 Bft) S 180 0 min 0,000 mm 65 W/m 3,8 C 5,1 C 8,0 km/h (2 Bft) 100 %
17.04.2017 08:10 5,2 C 5,1 C 5,2 C 91 % 1015,6 hPa 0,0 l/m 4,8 km/h (1 Bft) S-SO 157 0 min 0,000 mm 70 W/m 3,9 C 5,2 C 11,3 km/h (2 Bft) 100 %
17.04.2017 08:20 5,2 C 5,2 C 5,2 C 91 % 1015,5 hPa 0,0 l/m 6,4 km/h (2 Bft) S-SO 157 0 min 0,000 mm 62 W/m 3,9 C 5,2 C 11,3 km/h (2 Bft) 100 %
17.04.2017 08:30 5,2 C 5,2 C 5,3 C 91 % 1015,4 hPa 0,0 l/m 6,4 km/h (2 Bft) S-SO 157 0 min 0,000 mm 74 W/m 3,9 C 5,2 C 16,1 km/h (3 Bft) 100 %
17.04.2017 08:40 5,2 C 5,2 C 5,3 C 91 % 1015,4 hPa 0,2 l/m 6,4 km/h (2 Bft) S-SO 157 0 min 0,000 mm 46 W/m 3,9 C 5,2 C 11,3 km/h (2 Bft) 100 %
17.04.2017 08:50 5,2 C 5,2 C 5,3 C 91 % 1015,3 hPa 0,0 l/m 6,4 km/h (2 Bft) S 180 0 min 0,000 mm 44 W/m 3,9 C 5,2 C 11,3 km/h (2 Bft) 100 %
17.04.2017 09:00 5,3 C 5,2 C 5,3 C 91 % 1015,2 hPa 0,2 l/m 4,8 km/h (1 Bft) S 180 0 min 0,025 mm 53 W/m 4,0 C 5,3 C 8,0 km/h (2 Bft) 100 %
17.04.2017 09:10 5,4 C 5,3 C 5,4 C 91 % 1015,0 hPa 0,2 l/m 6,4 km/h (2 Bft) S-SO 157 0 min 0,000 mm 88 W/m 4,1 C 5,4 C 11,3 km/h (2 Bft) 100 %
17.04.2017 09:20 5,6 C 5,4 C 5,6 C 91 % 1014,6 hPa 0,2 l/m 6,4 km/h (2 Bft) S 180 0 min 0,000 mm 116 W/m 4,2 C 5,6 C 11,3 km/h (2 Bft) 100 %
17.04.2017 09:30 5,7 C 5,6 C 5,7 C 91 % 1014,4 hPa 0,0 l/m 6,4 km/h (2 Bft) S-SO 157 0 min 0,000 mm 132 W/m 4,3 C 5,7 C 16,1 km/h (3 Bft) 100 %
17.04.2017 09:40 5,8 C 5,7 C 5,8 C 91 % 1014,3 hPa 0,0 l/m 6,4 km/h (2 Bft) S 180 0 min 0,000 mm 151 W/m 4,4 C 5,8 C 11,3 km/h (2 Bft) 100 %
17.04.2017 09:50 6,1 C 5,8 C 6,1 C 91 % 1014,4 hPa 0,0 l/m 6,4 km/h (2 Bft) S 180 10 min 0,000 mm 156 W/m 4,7 C 6,1 C 12,9 km/h (3 Bft) 100 %
17.04.2017 10:00 6,2 C 6,1 C 6,2 C 91 % 1014,3 hPa 0,0 l/m 6,4 km/h (2 Bft) S 180 10 min 0,051 mm 167 W/m 4,8 C 6,2 C 16,1 km/h (3 Bft) 100 %
17.04.2017 10:10 6,2 C 6,2 C 6,2 C 91 % 1014,2 hPa 0,2 l/m 4,8 km/h (1 Bft) S 180 0 min 0,000 mm 81 W/m 4,8 C 6,2 C 11,3 km/h (2 Bft) 100 %
17.04.2017 10:20 6,3 C 6,2 C 6,3 C 91 % 1014,0 hPa 0,2 l/m 9,7 km/h (2 Bft) S-SW 202 0 min 0,000 mm 118 W/m 4,9 C 3,7 C 22,5 km/h (4 Bft) 100 %
17.04.2017 10:30 6,7 C 6,3 C 6,7 C 91 % 1013,6 hPa 0,0 l/m 9,7 km/h (2 Bft) S-SW 202 0 min 0,000 mm 149 W/m 5,3 C 4,2 C 19,3 km/h (3 Bft) 99 %
17.04.2017 10:40 6,9 C 6,7 C 6,9 C 91 % 1013,7 hPa 0,0 l/m 12,9 km/h (3 Bft) S-SW 202 10 min 0,000 mm 174 W/m 5,5 C 2,4 C 24,1 km/h (4 Bft) 100 %
17.04.2017 10:50 7,1 C 6,9 C 7,1 C 91 % 1013,6 hPa 0,0 l/m 12,9 km/h (3 Bft) SW 225 10 min 0,000 mm 225 W/m 5,7 C 2,7 C 32,2 km/h (5 Bft) 100 %
17.04.2017 11:00 7,2 C 7,1 C 7,2 C 91 % 1013,5 hPa 0,0 l/m 16,1 km/h (3 Bft) S-SW 202 10 min 0,051 mm 246 W/m 5,8 C 1,2 C 30,6 km/h (5 Bft) 100 %
17.04.2017 11:10 7,2 C 7,2 C 7,3 C 91 % 1013,4 hPa 0,0 l/m 16,1 km/h (3 Bft) SW 225 10 min 0,000 mm 153 W/m 5,8 C 1,2 C 32,2 km/h (5 Bft) 100 %
17.04.2017 11:20 7,3 C 7,2 C 7,3 C 91 % 1013,2 hPa 0,0 l/m 12,9 km/h (3 Bft) SW 225 10 min 0,000 mm 160 W/m 5,9 C 2,9 C 25,7 km/h (4 Bft) 100 %
17.04.2017 11:30 7,4 C 7,3 C 7,4 C 91 % 1013,1 hPa 0,2 l/m 12,9 km/h (3 Bft) SW 225 10 min 0,000 mm 221 W/m 6,0 C 3,0 C 29,0 km/h (5 Bft) 100 %
17.04.2017 11:40 7,4 C 7,3 C 7,4 C 90 % 1013,0 hPa 0,0 l/m 17,7 km/h (3 Bft) SW 225 10 min 0,000 mm 271 W/m 5,9 C 0,8 C 33,8 km/h (5 Bft) 99 %
17.04.2017 11:50 7,6 C 7,3 C 7,6 C 90 % 1012,9 hPa 0,0 l/m 17,0 km/h (3 Bft) W 259 0 min 0,000 mm 151 W/m 6,1 C 1,3 C 29,0 km/h (5 Bft) 100 %
17.04.2017 12:00 7,7 C 7,6 C 7,7 C 91 % 1012,8 hPa 0,2 l/m 12,1 km/h (2 Bft) SW 225 0 min 0,076 mm 62 W/m 6,3 C 3,8 C 27,4 km/h (4 Bft) 100 %
17.04.2017 12:10 7,6 C 7,6 C 7,7 C 91 % 1012,6 hPa 0,0 l/m 10,8 km/h (2 Bft) S-SW 205 0 min 0,000 mm 88 W/m 6,2 C 4,4 C 24,1 km/h (4 Bft) 91 %
17.04.2017 12:20 7,6 C 7,6 C 7,7 C 91 % 1012,6 hPa 0,2 l/m 12,0 km/h (2 Bft) S-SW 211 0 min 0,000 mm 51 W/m 6,2 C 3,8 C 30,6 km/h (5 Bft) 100 %
17.04.2017 12:30 7,5 C 7,5 C 7,6 C 90 % 1012,5 hPa 0,2 l/m 11,1 km/h (2 Bft) SW 232 0 min 0,000 mm 74 W/m 6,0 C 4,2 C 25,7 km/h (4 Bft) 100 %
17.04.2017 12:40 7,6 C 7,5 C 7,6 C 90 % 1012,4 hPa 0,4 l/m 11,3 km/h (2 Bft) W-SW 254 0 min 0,000 mm 84 W/m 6,1 C 4,1 C 25,7 km/h (4 Bft) 100 %
17.04.2017 12:50 7,6 C 7,6 C 7,6 C 90 % 1012,5 hPa 0,0 l/m 14,6 km/h (3 Bft) SW 221 0 min 0,000 mm 148 W/m 6,1 C 2,4 C 32,2 km/h (5 Bft) 100 %
17.04.2017 13:00 7,8 C 7,6 C 7,8 C 90 % 1012,4 hPa 0,2 l/m 12,9 km/h (3 Bft) W-SW 241 10 min 0,051 mm 225 W/m 6,3 C 3,5 C 27,4 km/h (4 Bft) 100 %
17.04.2017 13:10 8,0 C 7,8 C 8,0 C 91 % 1012,3 hPa 0,2 l/m 10,3 km/h (2 Bft) W-NW 284 10 min 0,000 mm 352 W/m 6,6 C 5,2 C 24,1 km/h (4 Bft) 100 %
17.04.2017 13:20 8,2 C 8,0 C 8,2 C 90 % 1012,3 hPa 0,0 l/m 9,9 km/h (2 Bft) W 261 0 min 0,000 mm 100 W/m 6,7 C 5,7 C 22,5 km/h (4 Bft) 99 %
17.04.2017 13:30 7,9 C 7,9 C 8,2 C 90 % 1012,4 hPa 0,2 l/m 12,1 km/h (2 Bft) W 267 0 min 0,000 mm 33 W/m 6,4 C 4,0 C 32,2 km/h (5 Bft) 100 %
17.04.2017 13:40 7,7 C 7,7 C 7,9 C 91 % 1012,8 hPa 1,2 l/m 11,7 km/h (2 Bft) W-NW 298 0 min 0,000 mm 11 W/m 6,3 C 4,0 C 25,7 km/h (4 Bft) 100 %
17.04.2017 13:50 6,9 C 6,9 C 7,7 C 90 % 1012,9 hPa 3,0 l/m 17,0 km/h (3 Bft) NW 313 0 min 0,000 mm 18 W/m 5,4 C 0,5 C 40,2 km/h (6 Bft) 100 %
17.04.2017 14:00 6,3 C 6,3 C 6,9 C 90 % 1012,9 hPa 0,8 l/m 9,3 km/h (2 Bft) NW 315 0 min 0,051 mm 37 W/m 4,8 C 4,0 C 19,3 km/h (3 Bft) 100 %
17.04.2017 14:10 6,2 C 6,2 C 6,3 C 91 % 1013,0 hPa 0,4 l/m 6,5 km/h (2 Bft) NW 304 0 min 0,000 mm 104 W/m 4,8 C 6,1 C 22,5 km/h (4 Bft) 100 %
17.04.2017 14:20 6,3 C 6,2 C 6,3 C 91 % 1013,1 hPa 0,2 l/m 4,1 km/h (1 Bft) W-NW 298 0 min 0,000 mm 97 W/m 4,9 C 6,3 C 14,5 km/h (3 Bft) 100 %
17.04.2017 14:30 6,4 C 6,3 C 6,4 C 91 % 1013,3 hPa 0,2 l/m 5,1 km/h (1 Bft) NW 321 0 min 0,000 mm 111 W/m 5,0 C 6,4 C 11,3 km/h (2 Bft) 100 %
17.04.2017 14:40 6,7 C 6,4 C 6,7 C 91 % 1013,4 hPa 0,0 l/m 6,1 km/h (2 Bft) NW 315 10 min 0,000 mm 162 W/m 5,3 C 6,7 C 14,5 km/h (3 Bft) 100 %
17.04.2017 14:50 6,9 C 6,7 C 6,9 C 91 % 1013,5 hPa 0,0 l/m 9,9 km/h (2 Bft) N 360 10 min 0,000 mm 176 W/m 5,5 C 4,2 C 32,2 km/h (5 Bft) 100 %
17.04.2017 15:00 6,6 C 6,6 C 6,9 C 91 % 1013,6 hPa 0,2 l/m 14,6 km/h (3 Bft) N-NW 342 10 min 0,000 mm 267 W/m 5,2 C 1,2 C 25,7 km/h (4 Bft) 100 %
17.04.2017 15:10 6,5 C 6,5 C 6,6 C 91 % 1013,9 hPa 0,0 l/m 9,1 km/h (2 Bft) W-NW 300 0 min 0,051 mm 77 W/m 5,1 C 4,4 C 20,9 km/h (4 Bft) 100 %
17.04.2017 15:20 6,3 C 6,3 C 6,6 C 91 % 1013,9 hPa 0,0 l/m 12,0 km/h (2 Bft) N-NW 338 10 min 0,000 mm 243 W/m 4,9 C 2,3 C 25,7 km/h (4 Bft) 100 %
17.04.2017 15:30 6,3 C 6,3 C 6,4 C 91 % 1014,2 hPa 0,0 l/m 9,1 km/h (2 Bft) NW 325 0 min 0,000 mm 56 W/m 4,9 C 4,1 C 22,5 km/h (4 Bft) 100 %
17.04.2017 15:40 5,9 C 5,9 C 6,3 C 91 % 1014,5 hPa 0,0 l/m 6,9 km/h (2 Bft) N 360 10 min 0,000 mm 241 W/m 4,5 C 5,5 C 17,7 km/h (3 Bft) 99 %
17.04.2017 15:50 5,7 C 5,7 C 5,9 C 91 % 1014,5 hPa 0,0 l/m 11,0 km/h (2 Bft) NW 319 10 min 0,000 mm 190 W/m 4,3 C 2,2 C 27,4 km/h (4 Bft) 91 %
17.04.2017 16:00 5,7 C 5,7 C 5,7 C 91 % 1014,7 hPa 0,0 l/m 8,5 km/h (2 Bft) N 355 10 min 0,000 mm 172 W/m 4,3 C 3,9 C 20,9 km/h (4 Bft) 100 %
17.04.2017 16:10 5,6 C 5,6 C 5,7 C 91 % 1014,8 hPa 0,0 l/m 10,4 km/h (2 Bft) W-NW 298 10 min 0,076 mm 225 W/m 4,2 C 2,5 C 20,9 km/h (4 Bft) 100 %
17.04.2017 16:20 6,0 C 5,6 C 6,0 C 91 % 1014,8 hPa 0,0 l/m 8,3 km/h (2 Bft) NW 319 10 min 0,000 mm 302 W/m 4,6 C 4,4 C 20,9 km/h (4 Bft) 100 %
17.04.2017 16:30 6,3 C 6,0 C 6,3 C 90 % 1015,0 hPa 0,0 l/m 10,1 km/h (2 Bft) N-NW 333 10 min 0,000 mm 236 W/m 4,8 C 3,4 C 30,6 km/h (5 Bft) 100 %
17.04.2017 16:40 6,4 C 6,3 C 6,4 C 90 % 1015,2 hPa 0,0 l/m 9,7 km/h (2 Bft) NW 319 0 min 0,000 mm 93 W/m 4,9 C 3,8 C 22,5 km/h (4 Bft) 100 %
17.04.2017 16:50 6,3 C 6,3 C 6,4 C 89 % 1015,3 hPa 0,0 l/m 4,9 km/h (1 Bft) N 355 0 min 0,000 mm 114 W/m 4,6 C 6,3 C 14,5 km/h (3 Bft) 100 %
17.04.2017 17:00 6,2 C 6,2 C 6,3 C 89 % 1015,4 hPa 0,0 l/m 4,0 km/h (1 Bft) N 360 0 min 0,076 mm 102 W/m 4,5 C 6,2 C 19,3 km/h (3 Bft) 91 %
17.04.2017 17:10 6,3 C 6,2 C 6,3 C 89 % 1015,6 hPa 0,0 l/m 0,2 km/h (0 Bft) N-NW 333 0 min 0,000 mm 79 W/m 4,6 C 6,3 C 8,0 km/h (2 Bft) 100 %
17.04.2017 17:20 6,3 C 6,2 C 6,3 C 88 % 1015,6 hPa 0,0 l/m 3,6 km/h (1 Bft) N 350 0 min 0,000 mm 105 W/m 4,5 C 6,3 C 16,1 km/h (3 Bft) 100 %
17.04.2017 17:30 6,3 C 6,2 C 6,3 C 88 % 1015,8 hPa 0,0 l/m 9,8 km/h (2 Bft) NW 316 10 min 0,000 mm 230 W/m 4,5 C 3,6 C 24,1 km/h (4 Bft) 100 %
17.04.2017 17:40 7,1 C 6,3 C 7,1 C 86 % 1015,7 hPa 0,0 l/m 10,6 km/h (2 Bft) NW 323 0 min 0,000 mm 146 W/m 4,9 C 4,0 C 24,1 km/h (4 Bft) 100 %
17.04.2017 17:50 7,2 C 7,1 C 7,2 C 84 % 1015,8 hPa 0,0 l/m 12,2 km/h (2 Bft) NW 320 0 min 0,000 mm 146 W/m 4,7 C 3,2 C 27,4 km/h (4 Bft) 100 %
17.04.2017 18:00 7,4 C 7,2 C 7,4 C 83 % 1015,9 hPa 0,0 l/m 10,9 km/h (2 Bft) NW 323 0 min 0,076 mm 69 W/m 4,7 C 4,2 C 19,3 km/h (3 Bft) 99 %
17.04.2017 18:10 7,5 C 7,4 C 7,5 C 82 % 1016,1 hPa 0,0 l/m 7,9 km/h (2 Bft) NW 315 0 min 0,000 mm 67 W/m 4,6 C 6,3 C 20,9 km/h (4 Bft) 100 %
17.04.2017 18:20 7,6 C 7,5 C 7,6 C 80 % 1016,2 hPa 0,0 l/m 8,6 km/h (2 Bft) N-NW 329 0 min 0,000 mm 69 W/m 4,4 C 5,9 C 22,5 km/h (4 Bft) 100 %
17.04.2017 18:30 7,5 C 7,5 C 7,6 C 80 % 1016,3 hPa 0,0 l/m 7,7 km/h (2 Bft) N-NW 331 0 min 0,000 mm 88 W/m 4,3 C 6,5 C 17,7 km/h (3 Bft) 98 %
17.04.2017 18:40 7,5 C 7,5 C 7,6 C 80 % 1016,3 hPa 0,0 l/m 4,8 km/h (1 Bft) W-NW 286 0 min 0,000 mm 88 W/m 4,3 C 7,5 C 16,1 km/h (3 Bft) 100 %
17.04.2017 18:50 7,4 C 7,4 C 7,5 C 80 % 1016,3 hPa 0,0 l/m 6,4 km/h (2 Bft) NW 322 0 min 0,000 mm 39 W/m 4,2 C 7,4 C 20,9 km/h (4 Bft) 100 %
17.04.2017 19:00 7,2 C 7,2 C 7,4 C 78 % 1016,4 hPa 0,0 l/m 2,5 km/h (1 Bft) N-NW 329 0 min 0,051 mm 37 W/m 3,6 C 7,2 C 14,5 km/h (3 Bft) 100 %
17.04.2017 19:10 7,1 C 7,1 C 7,2 C 80 % 1016,5 hPa 0,0 l/m 0,8 km/h (0 Bft) NW 306 0 min 0,000 mm 33 W/m 3,9 C 7,1 C 11,3 km/h (2 Bft) 100 %
17.04.2017 19:20 6,9 C 6,9 C 7,1 C 79 % 1016,6 hPa 0,0 l/m 1,4 km/h (1 Bft) NW 310 0 min 0,000 mm 19 W/m 3,5 C 6,9 C 8,0 km/h (2 Bft) 100 %
17.04.2017 19:30 6,6 C 6,6 C 6,9 C 80 % 1016,6 hPa 0,0 l/m 0,4 km/h (0 Bft) NW 310 0 min 0,000 mm 14 W/m 3,4 C 6,6 C 8,0 km/h (2 Bft) 100 %
17.04.2017 19:40 6,3 C 6,3 C 6,6 C 81 % 1016,8 hPa 0,0 l/m 0,2 km/h (0 Bft) NW 312 0 min 0,000 mm 12 W/m 3,3 C 6,3 C 3,2 km/h (1 Bft) 99 %
17.04.2017 19:50 6,0 C 6,0 C 6,3 C 83 % 1016,9 hPa 0,0 l/m 0,0 km/h (0 Bft) NW 312 0 min 0,000 mm 9 W/m 3,3 C 6,0 C 0,0 km/h (0 Bft) 99 %
17.04.2017 20:00 5,8 C 5,8 C 6,0 C 85 % 1017,1 hPa 0,0 l/m 0,0 km/h (0 Bft) NW 312 0 min 0,000 mm 5 W/m 3,5 C 5,8 C 0,0 km/h (0 Bft) 98 %
17.04.2017 20:10 5,6 C 5,6 C 5,8 C 86 % 1017,2 hPa 0,0 l/m 0,0 km/h (0 Bft) NW 312 0 min 0,000 mm 5 W/m 3,4 C 5,6 C 0,0 km/h (0 Bft) 100 %
17.04.2017 20:20 5,4 C 5,4 C 5,6 C 86 % 1017,3 hPa 0,0 l/m 0,0 km/h (0 Bft) NW 312 0 min 0,000 mm 0 W/m 3,3 C 5,4 C 0,0 km/h (0 Bft) 100 %
17.04.2017 20:30 5,2 C 5,2 C 5,4 C 87 % 1017,5 hPa 0,0 l/m 0,0 km/h (0 Bft) NW 312 0 min 0,000 mm 0 W/m 3,2 C 5,2 C 0,0 km/h (0 Bft) 100 %
17.04.2017 20:40 5,1 C 5,1 C 5,3 C 87 % 1017,5 hPa 0,0 l/m 0,4 km/h (0 Bft) NW 311 0 min 0,000 mm 0 W/m 3,1 C 5,1 C 6,4 km/h (2 Bft) 99 %
17.04.2017 20:50 4,9 C 4,9 C 5,1 C 87 % 1017,7 hPa 0,0 l/m 0,0 km/h (0 Bft) NW 311 0 min 0,000 mm 0 W/m 2,9 C 4,9 C 0,0 km/h (0 Bft) 99 %
17.04.2017 21:00 4,7 C 4,7 C 4,9 C 87 % 1017,8 hPa 0,0 l/m 0,0 km/h (0 Bft) NW 318 0 min 0,000 mm 0 W/m 2,7 C 4,7 C 1,6 km/h (1 Bft) 100 %
17.04.2017 21:10 4,6 C 4,6 C 4,7 C 86 % 1017,9 hPa 0,0 l/m 0,0 km/h (0 Bft) W 270 0 min 0,000 mm 0 W/m 2,5 C 4,6 C 8,0 km/h (2 Bft) 97 %
17.04.2017 21:20 4,4 C 4,4 C 4,6 C 86 % 1018,0 hPa 0,0 l/m 0,0 km/h (0 Bft) W 270 0 min 0,000 mm 0 W/m 2,3 C 4,4 C 6,4 km/h (2 Bft) 89 %
17.04.2017 21:30 4,3 C 4,3 C 4,4 C 86 % 1018,2 hPa 0,0 l/m 3,2 km/h (1 Bft) W-NW 292 0 min 0,000 mm 0 W/m 2,2 C 4,3 C 11,3 km/h (2 Bft) 98 %
17.04.2017 21:40 4,2 C 4,2 C 4,3 C 86 % 1018,3 hPa 0,0 l/m 3,2 km/h (1 Bft) NW 315 0 min 0,000 mm 0 W/m 2,1 C 4,2 C 8,0 km/h (2 Bft) 98 %
17.04.2017 21:50 4,2 C 4,2 C 4,2 C 86 % 1018,2 hPa 0,0 l/m 1,6 km/h (1 Bft) NW 315 0 min 0,000 mm 0 W/m 2,1 C 4,2 C 8,0 km/h (2 Bft) 98 %
17.04.2017 22:00 4,1 C 4,1 C 4,2 C 87 % 1018,3 hPa 0,0 l/m 1,6 km/h (1 Bft) NW 315 0 min 0,000 mm 0 W/m 2,1 C 4,1 C 6,4 km/h (2 Bft) 97 %
17.04.2017 22:10 4,2 C 4,1 C 4,2 C 87 % 1018,4 hPa 0,0 l/m 1,6 km/h (1 Bft) NW 315 0 min 0,000 mm 0 W/m 2,2 C 4,2 C 8,0 km/h (2 Bft) 98 %
17.04.2017 22:20 4,3 C 4,2 C 4,3 C 87 % 1018,4 hPa 0,0 l/m 1,6 km/h (1 Bft) NW 315 0 min 0,000 mm 0 W/m 2,3 C 4,3 C 8,0 km/h (2 Bft) 98 %
17.04.2017 22:30 4,3 C 4,3 C 4,3 C 87 % 1018,4 hPa 0,0 l/m 0,0 km/h (0 Bft) NW 315 0 min 0,000 mm 0 W/m 2,3 C 4,3 C 1,6 km/h (1 Bft) 98 %
17.04.2017 22:40 4,3 C 4,3 C 4,3 C 87 % 1018,4 hPa 0,0 l/m 0,0 km/h (0 Bft) NW 315 0 min 0,000 mm 0 W/m 2,3 C 4,3 C 1,6 km/h (1 Bft) 99 %
17.04.2017 22:50 4,3 C 4,3 C 4,3 C 87 % 1018,3 hPa 0,0 l/m 0,0 km/h (0 Bft) NW 315 0 min 0,000 mm 0 W/m 2,3 C 4,3 C 1,6 km/h (1 Bft) 99 %
17.04.2017 23:00 4,3 C 4,3 C 4,3 C 87 % 1018,4 hPa 0,0 l/m 1,6 km/h (1 Bft) NW 315 0 min 0,000 mm 0 W/m 2,3 C 4,3 C 6,4 km/h (2 Bft) 100 %
17.04.2017 23:10 4,3 C 4,3 C 4,3 C 87 % 1018,4 hPa 0,0 l/m 0,0 km/h (0 Bft) N-NW 337 0 min 0,000 mm 0 W/m 2,3 C 4,3 C 6,4 km/h (2 Bft) 89 %
17.04.2017 23:20 4,2 C 4,2 C 4,3 C 87 % 1018,5 hPa 0,0 l/m 0,0 km/h (0 Bft) N 0 0 min 0,000 mm 0 W/m 2,2 C 4,2 C 0,0 km/h (0 Bft) 100 %
17.04.2017 23:30 4,2 C 4,2 C 4,2 C 88 % 1018,6 hPa 0,0 l/m 0,0 km/h (0 Bft) N-NW 337 0 min 0,000 mm 0 W/m 2,4 C 4,2 C 1,6 km/h (1 Bft) 100 %
17.04.2017 23:40 4,1 C 4,1 C 4,2 C 88 % 1018,6 hPa 0,0 l/m 0,0 km/h (0 Bft) N 0 0 min 0,000 mm 0 W/m 2,3 C 4,1 C 0,0 km/h (0 Bft) 99 %
17.04.2017 23:50 4,1 C 4,1 C 4,1 C 89 % 1018,6 hPa 0,0 l/m 0,0 km/h (0 Bft) N 0 0 min 0,000 mm 0 W/m 2,5 C 4,1 C 0,0 km/h (0 Bft) 100 %
_ Min-Zeit 03:10 03:10 03:30 19:00 13:10 - 00:00 - - - - - 03:20 13:50 00:00 21:20
Minimum _ 3,6 C 3,6 C 3,6 C 78 % 1012,3 hPa - 0,0 km/h (0 Bft) - - - - - 1,6 C 0,5 C 0,0 km/h (0 Bft) 89 %
_ Max-Zeit 13:20 13:20 13:20 07:50 00:00 13:50 11:40 - - 09:50 12:00 13:10 13:20 18:40 13:50 00:00
Maximum _ 8,2 C 8,0 C 8,2 C 96 % 1019,7 hPa 3,0 l/m 17,7 km/h
SW (3 Bft)
- - 10 min 0,076 mm 352 W/m 6,7 C 7,5 C 40,2 km/h
W-NW (6 Bft)
100 %
Durchschnitt _ 5,6 C 5,5 C 5,6 C 88 % 1016,3 hPa #10,2 l/m 4,7 km/h (1 Bft) NW - #3:40 h #0,635 mm 109 W/m 3,8 C 4,6 C 12,1 km/h (2 Bft) 99 %
PRIVATE WETTERSTATION BILLIGHEIM-ALLFELD - www.neckar-odenwald-wetter.de - Holger Sonntag